Home > Weather > Sioux Falls > Past weeks

Flag for U.S.A. Weather for the Past 2 Weeks in Sioux Falls, South Dakota, U.S.A.

Now
23 °F

Light snow. Partly sunny.


Feels Like: 7 °F
Forecast: 16 / 23 °F
Wind: 24 mph from Northwest

Location: Foss Field

Current Time: Feb 8, 2016 at 1:26:53 PM

Latest Report: Feb 8, 2016 at 12:56 PM


Visibility: 8 mi

Pressure: 30.16 "Hg

Humidity: 68%

Dew point: 14 °F

Location of Sioux FallsLocation

Historic Weather in Sioux Falls — Graph

°F

Sioux Falls Temperature Yesterday

Maximum temperature yesterday: 38 °F (at 12:56 AM)
Minimum temperature yesterday: 24 °F (at 9:56 PM)
Average temperature yesterday: 32 °F

High & Low Weather Summary for the Past Weeks

 TemperatureHumidityPressure
High41 °F (Jan 27, 3:56 PM)96% (Jan 24, 8:56 PM)30.34 "Hg (Jan 24, 8:56 PM)
Low10 °F (Feb 4, 8:56 PM)60% (Feb 4, 3:56 PM)29.50 "Hg (Jan 30, 12:56 PM)
Average28 °F81%29.96 "Hg
* Reported Jan 24 11:56 AM — Feb 8 11:56 AM, Sioux Falls, Weather by CustomWeather, © 2016

Note: Actual official high and low records may vary slightly from our data, if they occured in-between our weather recording intervals... More about our weather records

Advertising

Sioux Falls Weather History for the Previous 24 Hours

 ConditionsComfort  
Time TempWeatherWind HumidityBarometerVisibility
11:56 AM
Mon, Feb 8
23 °FPartly sunny.32 mph65%30.17 "Hg10 mi
10:56 AM22 °FLight snow. Mostly cloudy.25 mph72%30.18 "Hg2 mi
9:56 AM20 °FLight snow. Mostly cloudy.24 mph74%30.17 "Hg2 mi
8:56 AM20 °FLight snow. Mostly cloudy.24 mph78%30.15 "Hg1 mi
7:56 AM20 °FLight snow. Mostly cloudy.24 mph78%30.13 "Hg2 mi
6:56 AM20 °FLight snow. Mostly cloudy.31 mph78%30.11 "Hg1 mi
5:56 AM22 °FLight snow. Overcast.32 mph75%30.09 "Hg5 mi
4:56 AM21 °FLight snow. Overcast.24 mph81%30.07 "Hg2 mi
3:56 AM22 °FOvercast.30 mph75%30.05 "Hg9 mi
2:56 AM23 °FMostly cloudy.31 mph72%30.04 "Hg10 mi
1:56 AM23 °FOvercast.28 mph72%30.02 "Hg10 mi
12:56 AM23 °FOvercast.25 mph74%30.02 "Hg10 mi
11:56 PM
Sun, Feb 7
24 °FOvercast.23 mph71%30.02 "Hg10 mi
10:56 PM24 °FOvercast.28 mph77%30.01 "Hg4 mi
9:56 PM24 °FLight snow. Mostly cloudy.22 mph81%30.02 "Hg2 mi
8:56 PM25 °FLight snow. Mostly cloudy.28 mph78%30.01 "Hg3 mi
7:56 PM25 °FLight snow. Mostly cloudy.16 mph81%30.00 "Hg2 mi
6:56 PM26 °FLight snow. Mostly cloudy.28 mph74%30.00 "Hg5 mi
5:56 PM29 °FMostly cloudy.29 mph69%29.96 "Hg10 mi
4:56 PM31 °FMostly cloudy.32 mph67%29.93 "Hg10 mi
3:56 PM33 °FOvercast.30 mph70%29.89 "Hg10 mi
2:56 PM34 °FMostly cloudy.25 mph73%29.86 "Hg10 mi
1:56 PM35 °FLight snow. Partly sunny.21 mph78%29.85 "Hg9 mi
Weather by CustomWeather, © 2016

See weather overviewHow to use our weather pages